SR9NCI Weather Reports


time (UTC)temp
F
wind
direction
speed
knots
gust
knots
rain 1hr
in
rain 24hr
in
rain mn
in
humidity
%
barometer
mb
20260505091246 78 155 13.9 22.6 0.00 0.00 0.00
20260505090844 78 163 15.6 20.0 0.00 0.00 0.00
20260505090443 78 147 13.9 22.6 0.00 0.00 0.00
20260505090041 78 146 14.8 20.0 0.00 0.00 0.00
20260505085640 78 155 11.3 23.5 0.00 0.00 0.00
20260505085237 77 150 13.0 20.9 0.00 0.00 0.00
20260505084836 77 155 13.9 18.2 0.00 0.00 0.00
20260505084435 77 159 10.4 15.6 0.00 0.00 0.00
20260505084033 76 150 9.6 17.4 0.00 0.00 0.00
20260505083624 76 153 10.4 18.2 0.00 0.00 0.00
20260505083222 76 167 15.6 25.2 0.00 0.00 0.00
20260505082821 77 146 9.6 13.9 0.00 0.00 0.00
20260505082420 76 149 12.2 17.4 0.00 0.00 0.00
20260505082017 75 137 13.0 20.0 0.00 0.00 0.00
20260505081616 76 136 12.2 20.0 0.00 0.00 0.00
20260505081215 76 160 13.0 23.5 0.00 0.00 0.00
20260505080814 75 140 13.9 20.0 0.00 0.00 0.00
20260505080413 75 167 12.2 17.4 0.00 0.00 0.00
20260505080010 75 155 13.9 20.0 0.00 0.00 0.00
20260505075602 74 161 7.0 10.4 0.00 0.00 0.00
20260505075200 74 154 11.3 16.5 0.00 0.00 0.00
20260505074759 75 154 10.4 13.0 0.00 0.00 0.00
20260505074357 75 133 9.6 13.0 0.00 0.00 0.00
20260505073955 75 143 9.6 14.8 0.00 0.00 0.00
20260505073554 75 156 11.3 14.8 0.00 0.00 0.00
20260505073152 75 134 10.4 17.4 0.00 0.00 0.00
20260505072750 75 145 11.3 18.2 0.00 0.00 0.00
20260505072349 74 141 10.4 16.5 0.00 0.00 0.00
20260505071947 74 141 11.3 16.5 0.00 0.00 0.00
20260505071539 75 145 12.2 18.2 0.00 0.00 0.00
20260505071136 76 148 10.4 19.1 0.00 0.00 0.00
20260505070735 79 140 13.9 20.0 0.00 0.00 0.00
20260505070334 78 152 13.0 18.2 0.00 0.00 0.00
20260505065932 75 148 12.2 16.5 0.00 0.00 0.00
20260505065128 72 150 12.2 16.5 0.00 0.00 0.00
20260505064728 72 140 10.4 16.5 0.00 0.00 0.00
20260505064327 72 145 11.3 19.1 0.00 0.00 0.00
20260505063516 72 135 11.3 19.1 0.00 0.00 0.00
20260505063114 71 137 10.4 15.6 0.00 0.00 0.00
20260505062713 70 132 10.4 15.6 0.00 0.00 0.00
20260505062312 70 142 11.3 17.4 0.00 0.00 0.00
20260505061909 70 132 9.6 13.0 0.00 0.00 0.00
20260505061508 70 143 8.7 13.9 0.00 0.00 0.00
20260505061106 70 135 8.7 14.8 0.00 0.00 0.00
20260505060705 70 124 10.4 17.4 0.00 0.00 0.00
20260505060303 71 138 9.6 14.8 0.00 0.00 0.00
20260505055901 70 131 10.4 15.6 0.00 0.00 0.00
20260505055453 70 134 8.7 13.9 0.00 0.00 0.00
20260505055051 70 125 10.4 14.8 0.00 0.00 0.00
20260505054650 70 127 7.8 12.2 0.00 0.00 0.00
20260505054248 70 131 9.6 15.6 0.00 0.00 0.00
20260505053846 70 121 7.8 10.4 0.00 0.00 0.00
20260505053445 70 123 7.0 13.9 0.00 0.00 0.00
20260505053043 70 122 7.8 11.3 0.00 0.00 0.00
20260505052641 70 122 7.8 10.4 0.00 0.00 0.00
20260505052240 70 121 7.0 10.4 0.00 0.00 0.00
20260505051838 69 124 7.0 10.4 0.00 0.00 0.00
20260505051430 69 127 8.7 13.9 0.00 0.00 0.00
20260505051027 69 124 7.8 11.3 0.00 0.00 0.00
20260505050627 68 132 8.7 12.2 0.00 0.00 0.00
20260505050226 68 121 7.0 9.6 0.00 0.00 0.00
20260505041358 66 111 2.6 4.3 0.00 0.00 0.00
20260505040956 66 138 3.5 6.1 0.00 0.00 0.00
20260505040555 65 146 5.2 7.8 0.00 0.00 0.00
20260505040152 65 127 3.5 5.2 0.00 0.00 0.00
20260505035750 65 117 4.3 7.8 0.00 0.00 0.00
20260505035343 65 130 3.5 5.2 0.00 0.00 0.00
20260505034941 65 149 4.3 7.0 0.00 0.00 0.00
20260505034539 64 124 4.3 8.7 0.00 0.00 0.00
20260505034138 63 97 4.3 7.0 0.00 0.00 0.00
20260505033736 64 124 3.5 7.0 0.00 0.00 0.00
20260505033335 63 111 1.7 3.5 0.00 0.00 0.00
20260505032932 63 111 2.6 4.3 0.00 0.00 0.00
20260505032530 63 111 2.6 5.2 0.00 0.00 0.00
20260505032129 63 111 3.5 5.2 0.00 0.00 0.00
20260505031728 62 102 4.3 7.0 0.00 0.00 0.00
20260505031320 63 111 2.6 5.2 0.00 0.00 0.00
20260505030916 62 90 1.7 4.3 0.00 0.00 0.00
20260505030516 62 90 2.6 5.2 0.00 0.00 0.00
20260505030115 63 97 4.3 6.1 0.00 0.00 0.00
20260505025713 63 111 4.3 7.0 0.00 0.00 0.00
20260505025311 63 104 5.2 7.8 0.00 0.00 0.00
20260505024909 63 86 4.3 7.0 0.00 0.00 0.00
20260505024508 63 101 4.3 5.2 0.00 0.00 0.00
20260505024107 62 111 4.3 5.2 0.00 0.00 0.00
20260505023704 62 111 0.9 1.7 0.00 0.00 0.00
20260505023256 62 111 0.0 1.7 0.00 0.00 0.00
20260505022854 62 111 0.0 1.7 0.00 0.00 0.00
20260505022453 62 111 0.9 2.6 0.00 0.00 0.00
20260505021649 63 129 2.6 4.3 0.00 0.00 0.00
20260505021248 64 125 3.5 5.2 0.00 0.00 0.00
20260505020846 64 111 2.6 3.5 0.00 0.00 0.00
20260505020445 64 120 3.5 7.8 0.00 0.00 0.00
20260505020043 64 121 5.2 7.8 0.00 0.00 0.00
20260505015641 64 126 4.3 7.8 0.00 0.00 0.00
20260505015233 64 116 4.3 7.0 0.00 0.00 0.00
20260505014831 64 115 5.2 7.0 0.00 0.00 0.00
20260505014429 64 115 5.2 7.8 0.00 0.00 0.00
20260505014029 64 124 6.1 8.7 0.00 0.00 0.00
20260505013627 64 125 7.0 8.7 0.00 0.00 0.00
20260505013226 64 141 6.1 8.7 0.00 0.00 0.00
20260505012822 64 156 5.2 9.6 0.00 0.00 0.00
20260505012422 64 138 5.2 8.7 0.00 0.00 0.00
20260505012021 64 127 4.3 7.0 0.00 0.00 0.00
20260505011619 64 144 4.3 7.0 0.00 0.00 0.00
20260505011211 64 135 4.3 7.0 0.00 0.00 0.00
20260505010808 64 153 3.5 5.2 0.00 0.00 0.00
20260505010407 64 135 2.6 4.3 0.00 0.00 0.00
20260505010006 64 135 4.3 6.1 0.00 0.00 0.00
20260505005604 64 135 3.5 7.0 0.00 0.00 0.00
20260505005202 64 135 3.5 6.1 0.00 0.00 0.00
20260505004800 64 143 3.5 7.0 0.00 0.00 0.00
20260505004359 64 135 3.5 6.1 0.00 0.00 0.00
20260505003958 64 139 3.5 5.2 0.00 0.00 0.00
20260505003555 64 157 3.5 5.2 0.00 0.00 0.00
20260505003147 65 202 3.5 7.8 0.00 0.00 0.00
20260505002745 65 157 3.5 5.2 0.00 0.00 0.00
20260505002344 65 157 4.3 6.1 0.00 0.00 0.00
20260505001942 65 157 2.6 6.1 0.00 0.00 0.00
20260505001540 66 144 4.3 7.0 0.00 0.00 0.00
20260505001139 65 157 3.5 6.1 0.00 0.00 0.00
20260505000737 65 157 3.5 5.2 0.00 0.00 0.00
20260505000336 65 146 4.3 7.0 0.00 0.00 0.00
20260504235935 65 135 3.5 5.2 0.00 0.00 0.00
20260504235532 65 122 5.2 8.7 0.00 0.00 0.00
20260504235124 65 127 4.3 6.1 0.00 0.00 0.00
20260504234723 65 112 3.5 5.2 0.00 0.00 0.00
20260504234320 65 117 4.3 7.0 0.00 0.00 0.00
20260504233919 65 135 2.6 6.1 0.00 0.00 0.00
20260504233518 65 135 3.5 7.0 0.00 0.00 0.00
20260504233117 65 135 3.5 5.2 0.00 0.00 0.00
20260504232714 65 135 3.5 6.1 0.00 0.00 0.00
20260504232313 65 135 4.3 6.1 0.00 0.00 0.00
20260504231912 66 145 3.5 6.1 0.00 0.00 0.00
20260504231510 66 135 3.5 7.0 0.00 0.00 0.00
20260504231101 66 157 4.3 7.8 0.00 0.00 0.00
20260504230659 66 154 4.3 7.0 0.00 0.00 0.00
20260504230258 66 144 5.2 7.0 0.00 0.00 0.00
20260504225857 66 148 5.2 7.0 0.00 0.00 0.00
20260504225455 66 139 6.1 8.7 0.00 0.00 0.00
20260504225053 66 144 6.1 8.7 0.00 0.00 0.00
20260504224651 66 136 7.0 9.6 0.00 0.00 0.00
20260504224250 66 131 6.1 7.8 0.00 0.00 0.00
20260504223849 66 141 6.1 8.7 0.00 0.00 0.00
20260504223446 66 143 6.1 10.4 0.00 0.00 0.00
20260504223047 67 143 7.8 10.4 0.00 0.00 0.00
20260504223038 67 143 7.8 10.4 0.00 0.00 0.00
20260504222636 67 138 7.0 10.4 0.00 0.00 0.00
20260504222235 67 132 6.1 11.3 0.00 0.00 0.00
20260504221833 66 140 6.1 8.7 0.00 0.00 0.00
20260504221431 67 152 5.2 8.7 0.00 0.00 0.00
20260504221030 67 151 6.1 8.7 0.00 0.00 0.00
20260504220629 66 154 4.3 7.0 0.00 0.00 0.00
20260504220226 67 156 4.3 7.8 0.00 0.00 0.00
20260504215825 67 146 4.3 6.1 0.00 0.00 0.00
20260504215424 67 139 3.5 5.2 0.00 0.00 0.00
20260504215016 67 158 5.2 8.7 0.00 0.00 0.00
20260504214614 67 151 3.5 5.2 0.00 0.00 0.00
20260504214212 67 169 4.3 6.1 0.00 0.00 0.00
20260504213811 67 180 2.6 5.2 0.00 0.00 0.00
20260504213409 67 143 3.5 8.7 0.00 0.00 0.00
20260504213008 67 156 2.6 6.1 0.00 0.00 0.00
20260504212605 67 147 1.7 2.6 0.00 0.00 0.00
20260504212204 67 141 1.7 4.3 0.00 0.00 0.00
20260504211803 67 157 3.5 5.2 0.00 0.00 0.00
20260504211401 67 137 2.6 6.1 0.00 0.00 0.00
20260504210952 67 152 3.5 6.1 0.00 0.00 0.00
20260504210550 67 135 2.6 6.1 0.00 0.00 0.00
20260504210149 67 137 3.5 6.1 0.00 0.00 0.00
20260504205748 67 137 2.6 5.2 0.00 0.00 0.00
20260504205345 67 135 0.9 3.5 0.00 0.00 0.00
20260504204944 67 135 1.7 2.6 0.00 0.00 0.00
20260504204542 67 140 2.6 6.1 0.00 0.00 0.00
20260504204141 67 157 3.5 3.5 0.00 0.00 0.00
20260504203337 68 157 1.7 2.6 0.00 0.00 0.00
20260504202929 67 135 2.6 4.3 0.00 0.00 0.00
20260504202528 67 135 0.9 2.6 0.00 0.00 0.00
20260504202127 67 135 0.9 2.6 0.00 0.00 0.00
20260504201725 67 135 1.7 3.5 0.00 0.00 0.00
20260504201323 67 137 3.5 5.2 0.00 0.00 0.00
20260504200922 67 135 0.9 3.5 0.00 0.00 0.00
20260504200520 66 135 0.0 0.9 0.00 0.00 0.00
20260504200118 67 132 1.7 2.6 0.00 0.00 0.00
20260504195717 67 135 2.6 3.5 0.00 0.00 0.00
20260504195315 66 135 1.7 3.5 0.00 0.00 0.00
20260504194907 67 135 0.0 0.0 0.00 0.00 0.00
20260504194504 68 135 0.9 3.5 0.00 0.00 0.00
20260504194102 67 135 1.7 2.6 0.00 0.00 0.00
20260504193701 68 144 1.7 1.7 0.00 0.00 0.00
20260504193259 68 147 2.6 3.5 0.00 0.00 0.00
20260504192858 69 135 1.7 3.5 0.00 0.00 0.00
20260504192455 68 135 3.5 5.2 0.00 0.00 0.00
20260504192053 69 151 3.5 5.2 0.00 0.00 0.00
20260504191652 69 135 1.7 3.5 0.00 0.00 0.00
20260504191250 69 135 1.7 3.5 0.00 0.00 0.00
20260504190841 69 135 3.5 4.3 0.00 0.00 0.00
20260504190439 69 135 2.6 3.5 0.00 0.00 0.00
20260504190038 70 135 2.6 3.5 0.00 0.00 0.00
20260504185637 70 135 2.6 3.5 0.00 0.00 0.00
20260504185234 70 135 2.6 4.3 0.00 0.00 0.00
20260504184833 70 135 2.6 4.3 0.00 0.00 0.00
20260504184431 70 157 1.7 4.3 0.00 0.00 0.00
20260504184031 71 157 1.7 4.3 0.00 0.00 0.00
20260504183628 71 157 2.6 4.3 0.00 0.00 0.00
20260504183227 72 157 3.5 4.3 0.00 0.00 0.00
20260504182819 72 180 3.5 5.2 0.00 0.00 0.00
20260504182417 72 180 3.5 5.2 0.00 0.00 0.00
20260504182016 72 157 2.6 4.3 0.00 0.00 0.00
20260504181614 72 159 2.6 4.3 0.00 0.00 0.00
20260504181212 73 188 3.5 7.0 0.00 0.00 0.00
20260504180811 73 185 2.6 3.5 0.00 0.00 0.00
20260504180409 73 198 3.5 5.2 0.00 0.00 0.00
20260504180007 74 180 3.5 6.1 0.00 0.00 0.00
20260504175606 73 192 4.3 7.8 0.00 0.00 0.00
20260504175204 74 202 3.5 5.2 0.00 0.00 0.00
20260504174756 74 198 3.5 6.1 0.00 0.00 0.00
20260504174353 74 202 4.3 7.0 0.00 0.00 0.00
20260504173952 74 207 5.2 7.8 0.00 0.00 0.00
20260504173551 74 202 5.2 8.7 0.00 0.00 0.00
20260504173149 75 197 6.1 9.6 0.00 0.00 0.00
20260504172747 75 199 6.1 8.7 0.00 0.00 0.00
20260504172345 75 200 7.8 13.9 0.00 0.00 0.00
20260504171944 75 200 7.8 11.3 0.00 0.00 0.00
20260504171543 75 201 8.7 13.9 0.00 0.00 0.00
20260504171141 75 207 7.0 11.3 0.00 0.00 0.00
20260504170732 75 211 8.7 11.3 0.00 0.00 0.00
20260504170330 76 209 7.8 12.2 0.00 0.00 0.00
20260504160300 81 193 5.2 8.7 0.00 0.00 0.00
20260504151032 81 167 6.1 8.7 0.00 0.00 0.00
20260504150624 81 197 8.7 13.0 0.00 0.00 0.00
20260504150222 81 176 7.8 10.4 0.00 0.00 0.00
20260504140954 81 166 7.8 9.6 0.00 0.00 0.00
20260504140553 81 162 9.6 13.9 0.00 0.00 0.00
20260504140150 81 164 10.4 13.9 0.00 0.00 0.00
20260504130513 80 189 7.0 10.4 0.00 0.00 0.00
20260504130111 79 207 6.1 9.6 0.00 0.00 0.00
20260504110403 80 158 8.7 12.2 0.00 0.00 0.00
20260504100333 77 182 8.7 11.3 0.00 0.00 0.00